| time (UTC) | temp F | wind direction | speed MPH | gust MPH | rain 1hr in | rain 24hr in | rain mn in | humidity % | barometer mb |
| 20260906181818 | 63 | 20 | 2.0 | 0.0 | 0.00 | 0.00 | 0.00 | 42 | |
| 20260906171817 | 66 | 10 | 5.0 | 0.0 | 0.00 | 0.00 | 0.00 | 37 | |
| 20260906162221 | 68 | 20 | 9.0 | 0.0 | 0.00 | 0.00 | 0.00 | 32 | |
| 20260906151817 | 70 | 20 | 9.0 | 0.0 | 0.00 | 0.00 | 0.00 | 30 | |
| 20260906141817 | 68 | 310 | 7.0 | 0.0 | 0.00 | 0.00 | 0.00 | 34 | |
| 20260906132120 | 68 | 260 | 5.0 | 0.0 | 0.00 | 0.00 | 0.00 | 40 | |
| 20260906121818 | 66 | 310 | 7.0 | 0.0 | 0.00 | 0.00 | 0.00 | 48 | |
| 20260906111819 | 64 | 280 | 9.0 | 0.0 | 0.00 | 0.00 | 0.00 | 52 | |
| 20260906102221 | 63 | 280 | 5.0 | 0.0 | 0.00 | 0.00 | 0.00 | 59 | |
| 20260906091818 | 61 | 290 | 7.0 | 0.0 | 0.00 | 0.00 | 0.00 | 59 | |
| 20260906081821 | 57 | 270 | 7.0 | 0.0 | 0.00 | 0.00 | 0.00 | 71 | |
| 20260906072121 | 57 | 300 | 7.0 | 0.0 | 0.00 | 0.00 | 0.00 | 67 | |
| 20260906061818 | 55 | 270 | 5.0 | 0.0 | 0.00 | 0.00 | 0.00 | 71 | |
| 20260906051817 | 52 | 270 | 7.0 | 0.0 | 0.00 | 0.00 | 0.00 | 76 | |
| 20260906042220 | 52 | 250 | 5.0 | 0.0 | 0.00 | 0.00 | 0.00 | 81 | |
| 20260906031818 | 55 | 270 | 7.0 | 0.0 | 0.00 | 0.00 | 0.00 | 71 | |
| 20260906021818 | 57 | 300 | 12.0 | 0.0 | 0.00 | 0.00 | 0.00 | 62 | |
| 20260906012118 | 57 | 290 | 9.0 | 0.0 | 0.00 | 0.00 | 0.00 | 62 | |
| 20260906001818 | 57 | 280 | 9.0 | 0.0 | 0.00 | 0.00 | 0.00 | 67 | |
| 20260905222221 | 59 | 290 | 12.0 | 0.0 | 0.00 | 0.00 | 0.00 | 62 | |
| 20260905211817 | 61 | 300 | 9.0 | 0.0 | 0.00 | 0.00 | 0.00 | 59 | |
| 20260905201818 | 63 | 300 | 7.0 | 0.0 | 0.00 | 0.00 | 0.00 | 59 | |
| 20260905192306 | 64 | 280 | 7.0 | 0.0 | 0.00 | 0.00 | 0.00 | 52 |